Regional Weather Roundup
Issued by NWS

Home | Current Version | Previous Version | Graphics & Text | Print | Product List | Glossary On
Versions: 1 2 3 4 5 6 7 8 9 10 11 12 13 14 15 16 17 18 19 20 21 22 23 24 25 26 27 28 29 30 31 32 33 34 35 36 37 38 39 40 41 42 43 44 45 46 47 48 49 50
021
ASUS43 KMKX 282321
RWRWI

WISCONSIN REGIONAL WEATHER ROUNDUP
NATIONAL WEATHER SERVICE MILWAUKEE/SULLIVAN WI
600 PM CDT THU JUL 28 2016

NOTE: "FAIR" INDICATES FEW OR NO CLOUDS BELOW 12,000 FEET WITH NO
SIGNIFICANT WEATHER AND/OR OBSTRUCTIONS TO VISIBILITY.

WIZ001-002-006>008-014>016-023>028-290000-
NORTHWEST WISCONSIN

CITY           SKY/WX    TMP DP  RH WIND       PRES   REMARKS
SUPERIOR ARPT  CLOUDY    67  60  80 NE9       30.07F
ASHLAND        MOSUNNY   67  55  65 NE13      30.08S
HAYWARD        PTSUNNY   69  54  58 NE13G21   30.06R
SIREN          NOT AVBL
CUMBERLAND     CLOUDY    70  55  60 NE12G18   30.03S
RICE LAKE      CLOUDY    73  59  62 NE13      30.03S
CHETEK         CLOUDY    73  60  64 N8G17     30.02S
LADYSMITH      PTSUNNY   72  62  71 N9        30.05R
EAU CLAIRE     CLOUDY    67  59  75 SE5       30.01R
MENOMONIE      CLOUDY    70  65  86 SE7       30.02R
NEW RICHMOND   MOSUNNY   73  56  55 NE10      30.03R
OSCEOLA        MOSUNNY   74  56  55 N10       30.05R
$$

WIZ003>005-009-010-017-018-290000-
NORTH CENTRAL WISCONSIN

CITY           SKY/WX    TMP DP  RH WIND       PRES   REMARKS
MANITOWISH WTR PTSUNNY   68  56  64 NE8       30.06S
ARBOR VITAE    CLOUDY    69  56  63 NE10      30.06R
WOODRUFF       CLOUDY    69  56  63 NE10      30.06R
RHINELANDER    PTSUNNY   73  54  51 E9        30.04S
EAGLE RIVER    MOSUNNY   69  52  54 NE12      30.05R
LAND O LAKES   PTSUNNY   67  52  56 NE8       30.08R
PHILLIPS       MOSUNNY   71  59  64 NE10      30.04R
TOMAHAWK       CLOUDY    71  57  63 NE6       30.03S
MEDFORD        CLOUDY    65  65  99 CALM      30.02S
MERRILL        CLOUDY    68  63  83 CALM      30.02F
$$

WIZ029-030-035-036-043>047-290000-
CENTRAL WISCONSIN

CITY           SKY/WX    TMP DP  RH WIND       PRES   REMARKS
WAUSAU         CLOUDY    66  61  84 CALM      30.00S
MOSINEE        CLOUDY    66  61  82 NE7       30.02R
MARSHFIELD     CLOUDY    64  59  83 E6        30.00S
STEVENS POINT  HVY RAIN  64  58  81 NE5       30.01R
WAUPACA        MOSUNNY   72  62  72 NE8       29.98F
WAUTOMA        CLOUDY    69  64  84 NE8       29.98R
WISC RAPIDS    CLOUDY    68  57  68 E9        30.00R
CAMP DOUGLAS   CLOUDY    68  64  87 NE7       29.97R
$$

WIZ011>013-019>022-031-037>040-048>050-290000-
NORTHEAST WISCONSIN

CITY           SKY/WX    TMP DP  RH WIND       PRES   REMARKS
ANTIGO         CLOUDY    67  63  85 CALM      30.03S
SHAWANO        CLOUDY    70  61  73 E8        30.01R
OCONTO         CLOUDY    66  66 100 CALM      29.99S
STURGEON BAY   CLOUDY    69  60  73 NE7       30.00S
GREEN BAY      CLOUDY    68  65  90 NE9       29.98S
MANITOWOC      CLOUDY    66  58  75 VRB7      29.97S
APPLETON       CLOUDY    68  57  68 NE14G20   29.97S
CLINTONVILLE   CLOUDY    68  57  68 NE5       29.99F
OSHKOSH        CLOUDY    70  63  78 NE17      29.96S
$$

WIZ032>034-041-042-053>061-290000-
SOUTHWEST WISCONSIN

CITY           SKY/WX    TMP DP  RH WIND       PRES   REMARKS
LA CROSSE      LGT RAIN  67  64  90 NE5       29.98R FOG
SPARTA         CLOUDY    65  64  96 N6        29.98S FOG
VIROQUA        CLOUDY    66  66 100 N8        29.97S
BOSCOBEL       CLOUDY    74  68  81 VRB6      29.92R
PRAIRIE DU CHI CLOUDY    71  65  81 NW9       29.92S
PLATTEVILLE    MOSUNNY   77  72  85 N8        29.91S
$$

WIZ056-057-062-063-064-067-068-290000-
SOUTH CENTRAL WISCONSIN

CITY           SKY/WX    TMP DP  RH WIND       PRES   REMARKS
REEDSBURG      CLOUDY    71  66  82 NE9       29.94S
BARABOO/DELLS  CLOUDY    71  64  78 NE12      29.95S
LONE ROCK      PTSUNNY   76  68  76 NE10      29.92S
MINERAL POINT  RAIN      73  72  94 NE5       29.92R
MADISON        CLOUDY    74  66  76 NE13      29.92R
MIDDLETON      CLOUDY    73  69  89 NE8       29.93R
WATERTOWN      CLOUDY    71  67  88 NE8       29.93S
MONROE         PTSUNNY   73  68  83 E6        29.91S
JANESVILLE     PTSUNNY   77  68  73 E9        29.90S
$$

WIZ051-052-058>065-066-070>072-290000-
SOUTHEAST WISCONSIN

CITY           SKY/WX    TMP DP  RH WIND       PRES   REMARKS
MILWAUKEE      CLOUDY    68  64  87 N14G22    29.93S
WAUKESHA       PTSUNNY   68  61  77 NE12G20   29.96R
MILWAUKEE/TIMM CLOUDY    68  61  77 N12G17    29.96R
RACINE         CLOUDY    67  65  93 N14       29.95R
BURLINGTON     CLOUDY    70  66  85 NE10      29.92F
KENOSHA        CLOUDY    69  66  90 N12       29.92R
FOND DU LAC    CLOUDY    73  62  68 NE14      29.96R
SHEBOYGAN      CLOUDY    68  59  73 NE15      29.96S
WEST BEND      CLOUDY    68  61  77 NE13      29.95F
JUNEAU         CLOUDY    70  63  78 E8        29.95F
$$

LSZ147-162-290000-
LAKE SUPERIOR

STATION/POSITION TIME  TEMP    WIND        PRES    WAVE
                       AIR SEA DIR/SP/G            HT/PER
                 (UTC) (F)     (DEG/KT/KT) (MB)    (FT/S)
W MID LAKE BUOY  2250   62 61  100/  8/ 10 1018.2F   2/ 5
DEVILS ISLAND    2300   64      80/ 11/ 11 1018.8R
PORT WING        2140   60     360/ 11/ 12 1018.3F
SAXON HARBOR     2200   68      50/ 16/ 20 1017.9F
$$

LMZ867-665-643>646-290000-
LAKE MICHIGAN

STATION/POSITION TIME  TEMP    WIND        PRES    WAVE
                       AIR SEA DIR/SP/G            HT/PER
                 (UTC) (F)     (DEG/KT/KT) (MB)    (FT/S)
CHAMBERS ISLAND  2200   72      30/  6/  8 1015.2F
N MID LAKE BUOY  2250   71 71   30/  8/ 10 1014.6S   0
NORTHPORT PIER   2200   71      70/  5/  7 1015.2S
SISTER BAY       2221   75     120/  3/  7   N/A
ALGOMA LAKESHORE 2213           50/  6/  9   N/A
KEWAUNEE LAKESHO 2200           20/  5/  9 1014.9F
SHEBOYGAN LAKESH 2300   60      10/ 14/ 15 1014.5F
PORT WASHINGTON  2200   68      30/ 13/ 17 1014.9R
ATWATER BUOY     2300   63 64  340/ 14/ 16 1015.4R
MILWAUKEE LAKESH 2310   65     360/ 16/ 19   N/A
S MID LAKE BUOY  2250   75 77   50/ 14/ 17 1011.5F   2/ 6
KENOSHA   LAKESH 2300   69     360/ 14/ 16 1012.5R
$$

TC  - TEMPERATURE IN CELSIUS
VSB - VISIBILITY IN STATUTE MILES
WCI - WIND CHILL INDEX
HX  - HEAT INDEX





USA.gov is the U.S. government's official web portal to all federal, state and local government web resources and services.